Location: �clusier
(49.9361°N, 2.7869°E)
Time: 08:16:08
(UTC+00:00)

Cosmos 1758 - Pass Details

Date: 16 June 2021
Orbit: 539 x 561 km, 82.5° (Epoch: 02 August)

Event Time Altitude Azimuth Distance (km) Brightness Sun altitude
Rises 20:37:06 0° 349° (N) 2,722 8.0 -5.2°
Reaches altitude 10° 20:39:17 10° 350° (N) 1,821 7.0 -5.4°
Maximum altitude 20:43:17 89° 247° (WSW) 549 3.3 -5.9°
Drops below altitude 10° 20:47:15 10° 172° (S) 1,798 5.4 -6.3°
Enters shadow 20:48:30 - 172° (S) 2,315 6.0 -6.4°
